Weather History for Arctic Village, AK

Change the Weather History Date:

Sunday, October 28, 2012

  Actual Average Record
Temperature  
Mean Temperature 5 °F -  
Max Temperature 21 °F 13 °F 28 °F (1992)
Min Temperature -11 °F -10 °F -35 °F (1970)
Degree Days  
Heating Degree Days 60    
Moisture  
Dew Point 0 °F    
Average Humidity 71    
Maximum Humidity 100    
Minimum Humidity 25    
Precipitation  
Precipitation 0.00 in - - ()
Sea Level Pressure  
Sea Level Pressure 29.93 in    
Wind  
Wind Speed 1 mph (SW)    
Max Wind Speed 8 mph    
Max Gust Speed -    
Visibility 10 miles    
Events      
Averages and records for this station are not official NWS values.
T = Trace of Precipitation, MM = Missing Value Source: NWS Daily Summary

Daily Weather History Graph

Daily Weather History Graph

Search for Another Location

Airport:

Trip Planner

Search our weather history database for the weather conditions in past years. The results will help you decide how hot, cold, wet, or windy it might be!

Date:

Astronomy

Oct. 28, 2012 Rise Set
Actual Time 9:40 AM AKDT 5:10 PM AKDT
Civil Twilight 8:37 AM AKDT 6:13 PM AKDT
Nautical Twilight 7:30 AM AKDT 7:19 PM AKDT
Astronomical Twilight 6:25 AM AKDT 8:24 PM AKDT
Moon 4:31 PM AKDT (10/28) 8:35 AM AKDT (10/28)
Length of Visible Light 9h 36m
Length of Day
7h 29m
Waxing Gibbous, 99% of the Moon is Illuminated
Oct 28
Waxing Gibbous
Oct 29
Full
Nov 6
Last Quarter
Nov 13
New
Nov 20
First Quarter

Hourly Weather History & Observations

Time (AKDT) Temp. Windchill Dew Point Humidity Pressure Visibility Wind Dir Wind Speed Gust Speed Precip Events Conditions
12:16 AM -7.6 °F - - N/A% 29.93 in 10.0 mi Calm Calm - N/A   Clear
12:36 AM -4.0 °F - -22.0 °F 42% 29.94 in 10.0 mi Calm Calm - N/A   Clear
12:56 AM -9.4 °F - -9.4 °F 100% 29.94 in 10.0 mi Calm Calm - N/A   Clear
1:16 AM -7.6 °F - -9.4 °F 92% 29.94 in 10.0 mi Calm Calm - N/A   Clear
1:36 AM -9.4 °F - -27.4 °F 41% 29.94 in 10.0 mi Calm Calm - N/A   Clear
1:56 AM -9.4 °F - -14.8 °F 77% 29.94 in 10.0 mi Calm Calm - N/A   Clear
2:16 AM -7.6 °F - -20.2 °F 54% 29.94 in 9.0 mi Calm Calm - N/A   Clear
2:36 AM -7.6 °F - - N/A% 29.94 in 9.0 mi Calm Calm - N/A   Clear
2:56 AM -9.4 °F - -25.6 °F 45% 29.94 in 10.0 mi Calm Calm - N/A   Clear
3:16 AM -9.4 °F - - N/A% 29.93 in 10.0 mi Calm Calm - N/A   Clear
3:36 AM -9.4 °F - -25.6 °F 45% 29.93 in 10.0 mi Calm Calm - N/A   Clear
3:56 AM -7.6 °F - - N/A% 29.94 in 10.0 mi Calm Calm - N/A   Clear
4:16 AM -9.4 °F - - N/A% 29.94 in 10.0 mi Calm Calm - N/A   Partly Cloudy
4:36 AM -9.4 °F - -11.2 °F 92% 29.94 in 10.0 mi Calm Calm - N/A   Scattered Clouds
4:56 AM -9.4 °F - -25.6 °F 45% 29.95 in 10.0 mi Calm Calm - N/A   Partly Cloudy
5:16 AM -9.4 °F - -11.2 °F 92% 29.94 in 10.0 mi Calm Calm - N/A   Partly Cloudy
5:36 AM -9.4 °F - -27.4 °F 41% 29.95 in 10.0 mi Calm Calm - N/A   Clear
5:56 AM -9.4 °F - -14.8 °F 77% 29.94 in 10.0 mi Calm Calm - N/A   Clear
6:16 AM -9.4 °F - -23.8 °F 49% 29.94 in 10.0 mi Calm Calm - N/A   Clear
6:36 AM -7.6 °F - -11.2 °F 84% 29.94 in 10.0 mi Calm Calm - N/A   Clear
6:56 AM -11.2 °F - -27.4 °F 45% 29.94 in 10.0 mi Calm Calm - N/A   Clear
7:16 AM -9.4 °F - -18.4 °F 65% 29.94 in 10.0 mi Calm Calm - N/A   Clear
7:36 AM -9.4 °F - -22.0 °F 54% 29.94 in 10.0 mi Calm Calm - N/A   Clear
7:56 AM -9.4 °F - -23.8 °F 49% 29.94 in 10.0 mi Calm Calm - N/A   Clear
8:16 AM -9.4 °F - -20.2 °F 59% 29.94 in 10.0 mi Calm Calm - N/A   Clear
8:36 AM -4.0 °F - -9.4 °F 78% 29.94 in 10.0 mi Calm Calm - N/A   Clear
8:56 AM -0.4 °F - -29.2 °F 25% 29.94 in 10.0 mi Calm Calm - N/A   Clear
9:16 AM -0.4 °F -8.3 °F - N/A% 29.95 in 10.0 mi SSW 3.5 mph - N/A   Clear
9:36 AM -0.4 °F - -18.4 °F 43% 29.95 in 10.0 mi Calm Calm - N/A   Clear
9:56 AM 3.2 °F -10.3 °F -18.4 °F 36% 29.95 in 10.0 mi West 8.1 mph - N/A   Clear
10:16 AM 1.4 °F - -5.8 °F 72% 29.95 in 10.0 mi Calm Calm - N/A   Clear
10:36 AM 8.6 °F -1.3 °F 8.6 °F 100% 29.96 in 10.0 mi West 5.8 mph - N/A   Clear
10:56 AM 15.8 °F 6.1 °F 12.2 °F 86% 29.96 in 10.0 mi West 6.9 mph - N/A   Clear
11:16 AM 17.6 °F 10.7 °F 10.4 °F 73% 29.96 in 10.0 mi WSW 4.6 mph - N/A   Clear
11:36 AM 15.8 °F - 10.4 °F 79% 29.96 in 10.0 mi Calm Calm - N/A   Clear
11:56 AM 17.6 °F - 17.6 °F 100% 29.96 in 10.0 mi Calm Calm - N/A   Clear
12:16 PM 17.6 °F - 15.8 °F 93% 29.96 in 10.0 mi Calm Calm - N/A   Clear
12:36 PM 19.4 °F - 14.0 °F 80% 29.96 in 10.0 mi Calm Calm - N/A   Clear
12:56 PM 21.2 °F - 12.2 °F 68% 29.96 in 10.0 mi Calm Calm - N/A   Clear
1:16 PM 21.2 °F - 10.4 °F 63% 29.96 in 10.0 mi Calm Calm - N/A   Clear
1:36 PM 17.6 °F 12.3 °F 6.8 °F 63% 29.96 in 10.0 mi ESE 3.5 mph - N/A   Clear
1:56 PM 19.4 °F 14.3 °F 10.4 °F 68% 29.96 in 10.0 mi ESE 3.5 mph - N/A   Clear
2:16 PM 19.4 °F - 12.2 °F 74% 29.96 in 10.0 mi Calm Calm - N/A   Clear
2:36 PM 19.4 °F - 12.2 °F 74% 29.96 in 10.0 mi Calm Calm - N/A   Clear
2:56 PM 19.4 °F - 14.0 °F 80% 29.96 in 10.0 mi Calm Calm - N/A   Clear
3:16 PM 19.4 °F - 12.2 °F 74% 29.96 in 10.0 mi Calm Calm - N/A   Clear
3:36 PM 21.2 °F 14.9 °F 14.0 °F 74% 29.96 in 10.0 mi ESE 4.6 mph - N/A   Clear
3:56 PM 17.6 °F 12.3 °F 14.0 °F 86% 29.96 in 10.0 mi South 3.5 mph - N/A   Clear
4:16 PM 19.4 °F 14.3 °F 12.2 °F 74% 29.96 in 10.0 mi ESE 3.5 mph - N/A   Clear
4:36 PM 19.4 °F - 12.2 °F 74% 29.96 in 10.0 mi Calm Calm - N/A   Clear
4:56 PM 17.6 °F - 12.2 °F 79% 29.95 in 10.0 mi Calm Calm - N/A   Clear
5:16 PM 19.4 °F 12.8 °F 10.4 °F 68% 29.95 in 10.0 mi NNW 4.6 mph - N/A   Clear
5:36 PM 19.4 °F - 10.4 °F 68% 29.93 in 10.0 mi Calm Calm - N/A   Clear
5:56 PM 17.6 °F 9.3 °F 8.6 °F 68% 29.93 in 10.0 mi SSW 5.8 mph - N/A   Clear
6:16 PM 19.4 °F - 8.6 °F 63% 29.93 in 10.0 mi Calm Calm - N/A   Clear
6:36 PM 19.4 °F - 10.4 °F 68% 29.93 in 10.0 mi Calm Calm - N/A   Mostly Cloudy
6:56 PM 19.4 °F 10.4 °F 12.2 °F 74% 29.92 in 10.0 mi SW 6.9 mph - N/A   Mostly Cloudy
7:16 PM 17.6 °F 8.2 °F 12.2 °F 79% 29.92 in 10.0 mi WSW 6.9 mph - N/A   Mostly Cloudy
7:36 PM 15.8 °F - 8.6 °F 73% 29.91 in 10.0 mi Calm Calm - N/A   Partly Cloudy
7:56 PM 17.6 °F - 8.6 °F 68% 29.91 in 10.0 mi Calm Calm - N/A   Clear
8:16 PM 17.6 °F - 10.4 °F 73% 29.90 in 10.0 mi Calm Calm - N/A   Scattered Clouds
8:36 PM 15.8 °F 10.2 °F 10.4 °F 79% 29.90 in 10.0 mi NNW 3.5 mph - N/A   Mostly Cloudy
8:56 PM 15.8 °F - 6.8 °F 68% 29.90 in 10.0 mi Calm Calm - N/A   Mostly Cloudy
9:16 PM 10.4 °F 4.0 °F -0.4 °F 62% 29.90 in 10.0 mi SE 3.5 mph - N/A   Scattered Clouds
9:36 PM 12.2 °F 6.1 °F 3.2 °F 67% 29.89 in 10.0 mi ESE 3.5 mph - N/A   Overcast
9:56 PM 14.0 °F 6.5 °F 10.4 °F 86% 29.89 in 10.0 mi WSW 4.6 mph - N/A   Overcast
10:16 PM 12.2 °F 4.3 °F 12.2 °F 100% 29.88 in 10.0 mi West 4.6 mph - N/A   Mostly Cloudy
10:36 PM 14.0 °F 5.1 °F 14.0 °F 100% 29.88 in 10.0 mi West 5.8 mph - N/A   Overcast
10:56 PM 12.2 °F - 12.2 °F 100% 29.87 in 10.0 mi Calm Calm - N/A   Overcast
11:16 PM 12.2 °F 6.1 °F 12.2 °F 100% 29.87 in 10.0 mi SW 3.5 mph - N/A   Overcast
11:36 PM 12.2 °F - 8.6 °F 85% 29.87 in 10.0 mi Calm Calm - N/A   Overcast
11:56 PM 12.2 °F 4.3 °F 8.6 °F 85% 29.87 in 10.0 mi West 4.6 mph - N/A   Overcast